Location: Moy Burn
(57.3833°N, 4.0667°W)
Time: 09:58:58
(UTC+00:00)

Cosmos 1862 Rocket - Pass Details

Date: 08 August 2020
Orbit: 603 x 635 km, 82.5° (Epoch: 18 September)

Event Time Altitude Azimuth Distance (km) Brightness Sun altitude
Rises 21:26:22 0° 346° (NNW) 2,948 8.3 -8.3°
Reaches altitude 10° 21:28:38 10° 344° (NNW) 2,033 7.4 -8.5°
Maximum altitude 21:33:08 73° 261° (W) 665 3.8 -8.9°
Drops below altitude 10° 21:37:34 10° 177° (S) 2,002 5.7 -9.3°
Enters shadow 21:38:12 - 176° (S) 2,260 6.0 -9.4°
